| time (UTC) | temp F | wind direction | speed MPH | gust MPH | rain 1hr in | rain 24hr in | rain mn in | humidity % | barometer mb |
| 20260901213540 | 64 | 221 | 4.0 | 12.0 | 0.00 | 0.00 | 0.00 | 84 | 1015.5 |
| 20260901213051 | 64 | 211 | 5.0 | 11.0 | 0.00 | 0.00 | 0.00 | 85 | 1015.5 |
| 20260901212537 | 64 | 192 | 5.0 | 10.0 | 0.00 | 0.00 | 0.00 | 84 | 1015.5 |
| 20260901212037 | 65 | 184 | 4.0 | 10.0 | 0.00 | 0.00 | 0.00 | 84 | 1015.4 |
| 20260901211553 | 65 | 235 | 5.0 | 10.0 | 0.00 | 0.00 | 0.00 | 83 | 1015.5 |
| 20260901211036 | 66 | 210 | 3.0 | 10.0 | 0.00 | 0.00 | 0.00 | 83 | 1015.5 |
| 20260901210537 | 65 | 212 | 5.0 | 10.0 | 0.00 | 0.00 | 0.00 | 84 | 1015.4 |
| 20260901210051 | 65 | 205 | 5.0 | 9.0 | 0.00 | 0.00 | 0.00 | 83 | 1015.4 |
| 20260901205539 | 65 | 212 | 4.0 | 9.0 | 0.00 | 0.00 | 0.00 | 83 | 1015.4 |
| 20260901205037 | 66 | 227 | 4.0 | 8.0 | 0.00 | 0.00 | 0.00 | 82 | 1015.4 |
| 20260901204550 | 66 | 232 | 4.0 | 9.0 | 0.00 | 0.00 | 0.00 | 82 | 1015.5 |
| 20260901204043 | 65 | 229 | 4.0 | 9.0 | 0.00 | 0.00 | 0.00 | 82 | 1015.5 |
| 20260901203538 | 65 | 232 | 5.0 | 9.0 | 0.00 | 0.00 | 0.00 | 82 | 1015.5 |
| 20260901203103 | 66 | 205 | 4.0 | 9.0 | 0.00 | 0.00 | 0.00 | 80 | 1015.5 |
| 20260901202536 | 66 | 186 | 4.0 | 8.0 | 0.00 | 0.00 | 0.00 | 81 | 1015.5 |
| 20260901202043 | 66 | 198 | 4.0 | 8.0 | 0.00 | 0.00 | 0.00 | 80 | 1015.5 |
| 20260901201552 | 66 | 274 | 4.0 | 8.0 | 0.00 | 0.00 | 0.00 | 78 | 1015.5 |
| 20260901201038 | 66 | 215 | 4.0 | 8.0 | 0.00 | 0.00 | 0.00 | 78 | 1015.4 |
| 20260901200538 | 65 | 232 | 3.0 | 8.0 | 0.00 | 0.00 | 0.00 | 80 | 1015.4 |
| 20260901200106 | 64 | 221 | 4.0 | 8.0 | 0.00 | 0.00 | 0.00 | 81 | 1015.4 |
| 20260901195537 | 65 | 212 | 4.0 | 8.0 | 0.00 | 0.00 | 0.00 | 81 | 1015.5 |
| 20260901195040 | 64 | 226 | 4.0 | 8.0 | 0.00 | 0.00 | 0.00 | 82 | 1015.5 |
| 20260901194601 | 64 | 186 | 4.0 | 9.0 | 0.00 | 0.00 | 0.00 | 83 | 1015.6 |
| 20260901194038 | 64 | 213 | 4.0 | 9.0 | 0.00 | 0.00 | 0.00 | 82 | 1015.6 |
| 20260901193538 | 64 | 220 | 5.0 | 9.0 | 0.00 | 0.00 | 0.00 | 83 | 1015.6 |
| 20260901193109 | 64 | 204 | 5.0 | 8.0 | 0.00 | 0.00 | 0.00 | 83 | 1015.7 |
| 20260901192536 | 64 | 227 | 4.0 | 8.0 | 0.00 | 0.00 | 0.00 | 82 | 1015.8 |
| 20260901192038 | 64 | 209 | 3.0 | 9.0 | 0.00 | 0.00 | 0.00 | 81 | 1015.8 |
| 20260901191553 | 65 | 225 | 4.0 | 9.0 | 0.00 | 0.00 | 0.00 | 81 | 1015.8 |
| 20260901191037 | 65 | 205 | 4.0 | 8.0 | 0.00 | 0.00 | 0.00 | 81 | 1015.8 |
| 20260901190539 | 65 | 209 | 3.0 | 8.0 | 0.00 | 0.00 | 0.00 | 83 | 1015.8 |
| 20260901190059 | 64 | 235 | 4.0 | 8.0 | 0.00 | 0.00 | 0.00 | 83 | 1015.8 |
| 20260901185538 | 64 | 234 | 4.0 | 7.0 | 0.00 | 0.00 | 0.00 | 84 | 1015.7 |
| 20260901185037 | 64 | 219 | 3.0 | 9.0 | 0.00 | 0.00 | 0.00 | 85 | 1015.8 |
| 20260901184553 | 64 | 237 | 4.0 | 9.0 | 0.00 | 0.00 | 0.00 | 84 | 1015.7 |
| 20260901184037 | 64 | 190 | 4.0 | 8.0 | 0.00 | 0.00 | 0.00 | 85 | 1015.7 |
| 20260901183536 | 64 | 250 | 5.0 | 8.0 | 0.00 | 0.00 | 0.00 | 84 | 1015.6 |
| 20260901183054 | 64 | 206 | 4.0 | 7.0 | 0.00 | 0.00 | 0.00 | 83 | 1015.6 |
| 20260901182537 | 64 | 182 | 3.0 | 7.0 | 0.00 | 0.00 | 0.00 | 82 | 1015.5 |
| 20260901182037 | 64 | 202 | 3.0 | 7.0 | 0.00 | 0.00 | 0.00 | 83 | 1015.5 |
| 20260901181601 | 64 | 197 | 3.0 | 7.0 | 0.00 | 0.00 | 0.00 | 85 | 1015.5 |
| 20260901181036 | 63 | 215 | 3.0 | 7.0 | 0.00 | 0.00 | 0.00 | 85 | 1015.4 |
| 20260901180537 | 63 | 238 | 3.0 | 6.0 | 0.00 | 0.00 | 0.00 | 84 | 1015.4 |
| 20260901180053 | 63 | 235 | 3.0 | 6.0 | 0.00 | 0.00 | 0.00 | 85 | 1015.4 |
| 20260901175541 | 63 | 239 | 3.0 | 7.0 | 0.00 | 0.00 | 0.00 | 85 | 1015.4 |
| 20260901175039 | 63 | 209 | 3.0 | 7.0 | 0.00 | 0.00 | 0.00 | 85 | 1015.3 |
| 20260901174552 | 63 | 205 | 3.0 | 7.0 | 0.00 | 0.00 | 0.00 | 86 | 1015.3 |
| 20260901174039 | 63 | 201 | 2.0 | 7.0 | 0.00 | 0.00 | 0.00 | 86 | 1015.3 |
| 20260901173539 | 63 | 191 | 4.0 | 7.0 | 0.00 | 0.00 | 0.00 | 87 | 1015.3 |
| 20260901173102 | 63 | 204 | 3.0 | 7.0 | 0.00 | 0.00 | 0.00 | 88 | 1015.1 |
| 20260901172537 | 62 | 211 | 3.0 | 7.0 | 0.00 | 0.00 | 0.00 | 89 | 1015.1 |
| 20260901172039 | 62 | 211 | 3.0 | 6.0 | 0.00 | 0.00 | 0.00 | 90 | 1015.0 |
| 20260901171603 | 62 | 232 | 3.0 | 7.0 | 0.00 | 0.00 | 0.00 | 91 | 1015.0 |
| 20260901171036 | 62 | 174 | 4.0 | 7.0 | 0.00 | 0.00 | 0.00 | 91 | 1015.0 |
| 20260901170536 | 61 | 171 | 3.0 | 7.0 | 0.00 | 0.00 | 0.00 | 92 | 1015.0 |
| 20260901170106 | 61 | 256 | 4.0 | 7.0 | 0.00 | 0.00 | 0.00 | 92 | 1014.9 |
| 20260901165538 | 61 | 236 | 3.0 | 7.0 | 0.00 | 0.00 | 0.00 | 92 | 1014.9 |
| 20260901165036 | 61 | 236 | 2.0 | 6.0 | 0.00 | 0.00 | 0.00 | 92 | 1014.9 |
| 20260901164602 | 61 | 193 | 3.0 | 6.0 | 0.00 | 0.00 | 0.00 | 92 | 1014.9 |
| 20260901164038 | 61 | 199 | 3.0 | 6.0 | 0.00 | 0.00 | 0.00 | 92 | 1014.8 |
| 20260901163537 | 61 | 186 | 3.0 | 6.0 | 0.00 | 0.00 | 0.00 | 92 | 1014.7 |
| 20260901163100 | 61 | 200 | 2.0 | 5.0 | 0.00 | 0.00 | 0.00 | 93 | 1014.7 |
| 20260901162539 | 60 | 210 | 2.0 | 5.0 | 0.00 | 0.00 | 0.00 | 93 | 1014.8 |
| 20260901162039 | 60 | 202 | 2.0 | 5.0 | 0.00 | 0.00 | 0.00 | 93 | 1014.7 |
| 20260901161609 | 60 | 205 | 2.0 | 5.0 | 0.00 | 0.00 | 0.00 | 93 | 1014.6 |
| 20260901161037 | 60 | 206 | 2.0 | 5.0 | 0.00 | 0.00 | 0.00 | 93 | 1014.6 |
| 20260901160536 | 60 | 184 | 2.0 | 5.0 | 0.00 | 0.00 | 0.00 | 93 | 1014.6 |
| 20260901160052 | 60 | 217 | 2.0 | 5.0 | 0.00 | 0.00 | 0.00 | 92 | 1014.7 |
| 20260901155536 | 60 | 223 | 2.0 | 5.0 | 0.00 | 0.00 | 0.00 | 92 | 1014.6 |
| 20260901155037 | 60 | 201 | 3.0 | 5.0 | 0.00 | 0.00 | 0.00 | 92 | 1014.6 |
| 20260901154551 | 60 | 214 | 2.0 | 6.0 | 0.00 | 0.00 | 0.00 | 92 | 1014.6 |
| 20260901154037 | 60 | 205 | 2.0 | 6.0 | 0.00 | 0.00 | 0.00 | 92 | 1014.4 |
| 20260901153537 | 60 | 242 | 2.0 | 6.0 | 0.00 | 0.00 | 0.00 | 92 | 1014.4 |
| 20260901153101 | 60 | 196 | 3.0 | 6.0 | 0.00 | 0.00 | 0.00 | 92 | 1014.3 |
| 20260901152536 | 60 | 238 | 2.0 | 6.0 | 0.00 | 0.00 | 0.00 | 92 | 1014.2 |
| 20260901152036 | 60 | 239 | 3.0 | 6.0 | 0.00 | 0.00 | 0.00 | 92 | 1014.1 |
| 20260901151554 | 60 | 207 | 3.0 | 7.0 | 0.00 | 0.00 | 0.00 | 92 | 1014.1 |
| 20260901151037 | 60 | 208 | 2.0 | 7.0 | 0.00 | 0.00 | 0.00 | 92 | 1014.1 |
| 20260901150537 | 60 | 175 | 2.0 | 7.0 | 0.00 | 0.00 | 0.00 | 92 | 1014.0 |
| 20260901150052 | 60 | 199 | 3.0 | 7.0 | 0.00 | 0.00 | 0.00 | 91 | 1014.0 |
| 20260901145537 | 60 | 207 | 2.0 | 7.0 | 0.00 | 0.00 | 0.00 | 91 | 1014.0 |
| 20260901145039 | 60 | 190 | 2.0 | 6.0 | 0.00 | 0.00 | 0.00 | 91 | 1013.9 |
| 20260901144552 | 60 | 222 | 3.0 | 7.0 | 0.00 | 0.00 | 0.00 | 91 | 1013.9 |
| 20260901144041 | 60 | 223 | 3.0 | 7.0 | 0.00 | 0.00 | 0.00 | 90 | 1013.8 |
| 20260901143537 | 60 | 194 | 3.0 | 7.0 | 0.00 | 0.00 | 0.00 | 89 | 1013.8 |
| 20260901143057 | 60 | 198 | 2.0 | 6.0 | 0.00 | 0.00 | 0.00 | 89 | 1013.8 |
| 20260901142536 | 60 | 221 | 1.0 | 4.0 | 0.00 | 0.00 | 0.00 | 88 | 1013.7 |
| 20260901142039 | 60 | 227 | 2.0 | 4.0 | 0.00 | 0.00 | 0.00 | 88 | 1013.6 |
| 20260901141552 | 60 | 192 | 2.0 | 4.0 | 0.00 | 0.00 | 0.00 | 87 | 1013.5 |
| 20260901141037 | 60 | 217 | 2.0 | 4.0 | 0.00 | 0.00 | 0.00 | 87 | 1013.4 |
| 20260901140537 | 60 | 221 | 2.0 | 5.0 | 0.00 | 0.00 | 0.00 | 87 | 1013.4 |
| 20260901140110 | 59 | 227 | 2.0 | 5.0 | 0.00 | 0.00 | 0.00 | 87 | 1013.3 |
| 20260901135536 | 59 | 229 | 2.0 | 5.0 | 0.00 | 0.00 | 0.00 | 86 | 1013.3 |
| 20260901135036 | 59 | 240 | 1.0 | 4.0 | 0.00 | 0.00 | 0.00 | 87 | 1013.3 |
| 20260901134549 | 59 | 221 | 1.0 | 4.0 | 0.00 | 0.00 | 0.00 | 87 | 1013.3 |
| 20260901134041 | 59 | 208 | 1.0 | 3.0 | 0.00 | 0.00 | 0.00 | 88 | 1013.2 |
| 20260901133537 | 59 | 223 | 1.0 | 4.0 | 0.00 | 0.00 | 0.00 | 88 | 1013.2 |
| 20260901133054 | 59 | 0 | 1.0 | 4.0 | 0.00 | 0.00 | 0.00 | 88 | 1013.1 |
| 20260901132538 | 59 | 240 | 2.0 | 4.0 | 0.00 | 0.00 | 0.00 | 88 | 1013.1 |
| 20260901132037 | 59 | 0 | 1.0 | 4.0 | 0.00 | 0.00 | 0.00 | 87 | 1013.0 |
| 20260901131551 | 59 | 235 | 1.0 | 5.0 | 0.00 | 0.00 | 0.00 | 87 | 1013.0 |
| 20260901131036 | 59 | 212 | 1.0 | 5.0 | 0.00 | 0.00 | 0.00 | 87 | 1013.1 |
| 20260901130540 | 60 | 212 | 2.0 | 5.0 | 0.00 | 0.00 | 0.00 | 87 | 1013.1 |
| 20260901130050 | 60 | 233 | 2.0 | 5.0 | 0.00 | 0.00 | 0.00 | 86 | 1013.0 |
| 20260901125536 | 59 | 215 | 2.0 | 5.0 | 0.00 | 0.00 | 0.00 | 86 | 1013.0 |
| 20260901125033 | 60 | 213 | 2.0 | 5.0 | 0.00 | 0.00 | 0.00 | 85 | 1012.9 |
| 20260901124545 | 60 | 201 | 2.0 | 5.0 | 0.00 | 0.00 | 0.00 | 85 | 1012.8 |
| 20260901124040 | 60 | 193 | 2.0 | 5.0 | 0.00 | 0.00 | 0.00 | 84 | 1012.8 |
| 20260901123537 | 60 | 217 | 2.0 | 5.0 | 0.00 | 0.00 | 0.00 | 84 | 1012.9 |
| 20260901123117 | 60 | 227 | 3.0 | 5.0 | 0.00 | 0.00 | 0.00 | 84 | 1013.0 |
| 20260901122537 | 60 | 201 | 2.0 | 5.0 | 0.00 | 0.00 | 0.00 | 83 | 1012.9 |
| 20260901122036 | 60 | 227 | 2.0 | 4.0 | 0.00 | 0.00 | 0.00 | 83 | 1012.9 |
| 20260901121604 | 60 | 211 | 2.0 | 4.0 | 0.00 | 0.00 | 0.00 | 83 | 1012.8 |
| 20260901121040 | 60 | 252 | 1.0 | 4.0 | 0.00 | 0.00 | 0.00 | 83 | 1012.8 |
| 20260901120536 | 60 | 227 | 1.0 | 4.0 | 0.00 | 0.00 | 0.00 | 83 | 1012.7 |
| 20260901120052 | 60 | 242 | 1.0 | 4.0 | 0.00 | 0.00 | 0.00 | 83 | 1012.7 |
| 20260901115537 | 60 | 244 | 1.0 | 5.0 | 0.00 | 0.00 | 0.00 | 82 | 1012.7 |
| 20260901115036 | 60 | 241 | 1.0 | 5.0 | 0.00 | 0.00 | 0.00 | 82 | 1012.8 |
| 20260901114551 | 60 | 216 | 2.0 | 7.0 | 0.00 | 0.00 | 0.00 | 82 | 1012.8 |
| 20260901114037 | 60 | 209 | 2.0 | 7.0 | 0.00 | 0.00 | 0.00 | 82 | 1012.7 |
| 20260901113533 | 60 | 194 | 2.0 | 5.0 | 0.00 | 0.00 | 0.00 | 82 | 1012.8 |
| 20260901113105 | 60 | 204 | 2.0 | 5.0 | 0.00 | 0.00 | 0.00 | 82 | 1012.7 |
| 20260901112540 | 59 | 198 | 2.0 | 5.0 | 0.00 | 0.00 | 0.00 | 83 | 1012.8 |
| 20260901112037 | 59 | 216 | 1.0 | 4.0 | 0.00 | 0.00 | 0.00 | 83 | 1012.8 |
| 20260901111555 | 59 | 200 | 2.0 | 5.0 | 0.00 | 0.00 | 0.00 | 84 | 1012.9 |
| 20260901111041 | 59 | 220 | 2.0 | 6.0 | 0.00 | 0.00 | 0.00 | 84 | 1012.9 |
| 20260901110535 | 59 | 221 | 2.0 | 6.0 | 0.00 | 0.00 | 0.00 | 84 | 1013.0 |
| 20260901110103 | 59 | 201 | 2.0 | 5.0 | 0.00 | 0.00 | 0.00 | 84 | 1013.0 |
| 20260901105537 | 59 | 199 | 3.0 | 5.0 | 0.00 | 0.00 | 0.00 | 84 | 1012.9 |
| 20260901105036 | 59 | 207 | 2.0 | 6.0 | 0.00 | 0.00 | 0.00 | 85 | 1012.9 |
| 20260901104559 | 59 | 221 | 3.0 | 6.0 | 0.00 | 0.00 | 0.00 | 85 | 1012.8 |
| 20260901104035 | 59 | 198 | 2.0 | 6.0 | 0.00 | 0.00 | 0.00 | 85 | 1012.9 |
| 20260901103540 | 59 | 249 | 2.0 | 5.0 | 0.00 | 0.00 | 0.00 | 86 | 1012.8 |
| 20260901103049 | 59 | 231 | 2.0 | 6.0 | 0.00 | 0.00 | 0.00 | 86 | 1012.8 |
| 20260901102536 | 59 | 224 | 2.0 | 6.0 | 0.00 | 0.00 | 0.00 | 86 | 1012.8 |
| 20260901102036 | 59 | 215 | 2.0 | 5.0 | 0.00 | 0.00 | 0.00 | 86 | 1012.8 |
| 20260901101555 | 60 | 224 | 3.0 | 7.0 | 0.00 | 0.00 | 0.00 | 85 | 1012.8 |
| 20260901101037 | 59 | 171 | 3.0 | 7.0 | 0.00 | 0.00 | 0.00 | 85 | 1012.7 |
| 20260901100538 | 60 | 236 | 3.0 | 6.0 | 0.00 | 0.00 | 0.00 | 85 | 1012.7 |
| 20260901100105 | 60 | 208 | 2.0 | 5.0 | 0.00 | 0.00 | 0.00 | 84 | 1012.7 |
| 20260901095540 | 60 | 229 | 2.0 | 5.0 | 0.00 | 0.00 | 0.00 | 84 | 1012.7 |
| 20260901095038 | 60 | 257 | 2.0 | 5.0 | 0.00 | 0.00 | 0.00 | 84 | 1012.7 |
| 20260901094556 | 59 | 198 | 2.0 | 4.0 | 0.00 | 0.00 | 0.00 | 84 | 1012.7 |
| 20260901094036 | 59 | 210 | 2.0 | 4.0 | 0.00 | 0.00 | 0.00 | 84 | 1012.7 |
| 20260901093536 | 59 | 227 | 2.0 | 5.0 | 0.00 | 0.00 | 0.00 | 84 | 1012.8 |
| 20260901093056 | 59 | 203 | 2.0 | 6.0 | 0.00 | 0.00 | 0.00 | 84 | 1012.7 |
| 20260901092539 | 59 | 197 | 3.0 | 6.0 | 0.00 | 0.00 | 0.00 | 84 | 1012.7 |
| 20260901092037 | 59 | 233 | 2.0 | 5.0 | 0.00 | 0.00 | 0.00 | 84 | 1012.7 |
| 20260901091602 | 59 | 211 | 2.0 | 6.0 | 0.00 | 0.00 | 0.00 | 84 | 1012.7 |
| 20260901091037 | 59 | 196 | 2.0 | 6.0 | 0.00 | 0.00 | 0.00 | 85 | 1012.7 |
| 20260901090537 | 59 | 219 | 2.0 | 6.0 | 0.00 | 0.00 | 0.00 | 85 | 1012.7 |
| 20260901090051 | 59 | 217 | 3.0 | 6.0 | 0.00 | 0.00 | 0.00 | 85 | 1012.7 |
| 20260901085536 | 59 | 217 | 3.0 | 5.0 | 0.00 | 0.00 | 0.00 | 85 | 1012.7 |
| 20260901085036 | 59 | 211 | 2.0 | 5.0 | 0.00 | 0.00 | 0.00 | 86 | 1012.8 |
| 20260901084549 | 59 | 188 | 3.0 | 5.0 | 0.00 | 0.00 | 0.00 | 86 | 1012.7 |
| 20260901084037 | 59 | 190 | 2.0 | 5.0 | 0.00 | 0.00 | 0.00 | 86 | 1012.7 |
| 20260901083537 | 59 | 215 | 2.0 | 5.0 | 0.00 | 0.00 | 0.00 | 86 | 1012.7 |
| 20260901083045 | 59 | 221 | 2.0 | 5.0 | 0.00 | 0.00 | 0.00 | 86 | 1012.7 |
| 20260901082535 | 59 | 221 | 1.0 | 5.0 | 0.00 | 0.00 | 0.00 | 86 | 1012.8 |
| 20260901082038 | 59 | 218 | 3.0 | 5.0 | 0.00 | 0.00 | 0.00 | 86 | 1012.8 |
| 20260901081553 | 59 | 208 | 2.0 | 4.0 | 0.00 | 0.00 | 0.00 | 87 | 1012.7 |
| 20260901081036 | 59 | 198 | 2.0 | 4.0 | 0.00 | 0.00 | 0.00 | 88 | 1012.8 |
| 20260901080537 | 59 | 218 | 1.0 | 4.0 | 0.00 | 0.00 | 0.00 | 89 | 1012.7 |
| 20260901080057 | 59 | 213 | 2.0 | 4.0 | 0.00 | 0.00 | 0.00 | 89 | 1012.7 |
| 20260901075537 | 58 | 202 | 1.0 | 4.0 | 0.00 | 0.00 | 0.00 | 90 | 1012.7 |
| 20260901075038 | 58 | 207 | 2.0 | 5.0 | 0.00 | 0.00 | 0.00 | 90 | 1012.7 |
| 20260901074551 | 58 | 218 | 1.0 | 5.0 | 0.00 | 0.00 | 0.00 | 91 | 1012.7 |
| 20260901074038 | 58 | 202 | 1.0 | 4.0 | 0.00 | 0.00 | 0.00 | 91 | 1012.8 |
| 20260901073538 | 58 | 198 | 2.0 | 4.0 | 0.00 | 0.00 | 0.00 | 91 | 1012.8 |
| 20260901073054 | 58 | 246 | 1.0 | 4.0 | 0.00 | 0.00 | 0.00 | 91 | 1012.9 |
| 20260901072541 | 59 | 209 | 2.0 | 4.0 | 0.00 | 0.00 | 0.00 | 92 | 1012.9 |
| 20260901072037 | 58 | 223 | 1.0 | 4.0 | 0.00 | 0.00 | 0.00 | 92 | 1012.9 |
| 20260901071554 | 59 | 200 | 2.0 | 4.0 | 0.00 | 0.00 | 0.00 | 92 | 1012.8 |
| 20260901071038 | 59 | 213 | 1.0 | 4.0 | 0.00 | 0.00 | 0.00 | 92 | 1012.8 |
| 20260901070538 | 59 | 202 | 1.0 | 4.0 | 0.00 | 0.00 | 0.00 | 92 | 1012.8 |
| 20260901070057 | 59 | 246 | 1.0 | 4.0 | 0.00 | 0.00 | 0.00 | 92 | 1012.9 |
| 20260901065538 | 59 | 239 | 1.0 | 4.0 | 0.00 | 0.00 | 0.00 | 92 | 1012.8 |
| 20260901065037 | 59 | 205 | 2.0 | 5.0 | 0.00 | 0.00 | 0.00 | 92 | 1012.8 |
| 20260901064548 | 59 | 233 | 1.0 | 5.0 | 0.00 | 0.00 | 0.00 | 92 | 1012.8 |
| 20260901064042 | 59 | 220 | 2.0 | 4.0 | 0.00 | 0.00 | 0.00 | 91 | 1012.8 |
| 20260901063538 | 59 | 239 | 2.0 | 4.0 | 0.00 | 0.00 | 0.00 | 91 | 1012.9 |
| 20260901063057 | 59 | 240 | 2.0 | 4.0 | 0.00 | 0.00 | 0.00 | 91 | 1012.9 |
| 20260901062538 | 59 | 223 | 1.0 | 4.0 | 0.00 | 0.00 | 0.00 | 91 | 1012.8 |
| 20260901062041 | 59 | 223 | 1.0 | 4.0 | 0.00 | 0.00 | 0.00 | 91 | 1013.0 |
| 20260901061553 | 59 | 213 | 1.0 | 4.0 | 0.00 | 0.00 | 0.00 | 91 | 1013.0 |
| 20260901061039 | 59 | 209 | 1.0 | 4.0 | 0.00 | 0.00 | 0.00 | 91 | 1012.9 |
| 20260901060539 | 59 | 233 | 2.0 | 4.0 | 0.00 | 0.00 | 0.00 | 90 | 1013.0 |
| 20260901060054 | 59 | 229 | 2.0 | 4.0 | 0.00 | 0.00 | 0.00 | 90 | 1013.0 |
| 20260901055538 | 59 | 217 | 2.0 | 5.0 | 0.00 | 0.00 | 0.00 | 90 | 1013.0 |
| 20260901055039 | 59 | 219 | 2.0 | 5.0 | 0.00 | 0.00 | 0.00 | 90 | 1013.0 |
| 20260901054552 | 59 | 236 | 2.0 | 4.0 | 0.00 | 0.00 | 0.00 | 89 | 1013.1 |
| 20260901054041 | 59 | 235 | 2.0 | 5.0 | 0.00 | 0.00 | 0.00 | 89 | 1013.1 |
| 20260901053538 | 59 | 211 | 2.0 | 6.0 | 0.00 | 0.00 | 0.00 | 89 | 1013.2 |
| 20260901053106 | 59 | 242 | 2.0 | 6.0 | 0.00 | 0.00 | 0.00 | 89 | 1013.1 |
| 20260901052537 | 59 | 231 | 2.0 | 5.0 | 0.00 | 0.00 | 0.00 | 89 | 1013.1 |
| 20260901052039 | 59 | 215 | 2.0 | 6.0 | 0.00 | 0.00 | 0.00 | 89 | 1013.1 |
| 20260901051552 | 59 | 233 | 2.0 | 6.0 | 0.00 | 0.00 | 0.00 | 89 | 1013.1 |
| 20260901051042 | 59 | 223 | 2.0 | 5.0 | 0.00 | 0.00 | 0.00 | 89 | 1013.0 |
| 20260901050538 | 59 | 234 | 3.0 | 5.0 | 0.00 | 0.00 | 0.00 | 90 | 1013.1 |
| 20260901050054 | 59 | 227 | 2.0 | 5.0 | 0.00 | 0.00 | 0.00 | 90 | 1013.0 |
| 20260901045541 | 59 | 227 | 2.0 | 5.0 | 0.00 | 0.00 | 0.00 | 90 | 1013.0 |
| 20260901045038 | 59 | 229 | 2.0 | 5.0 | 0.00 | 0.00 | 0.00 | 90 | 1013.0 |
| 20260901044607 | 59 | 229 | 2.0 | 4.0 | 0.00 | 0.00 | 0.00 | 90 | 1012.9 |
| 20260901044038 | 59 | 225 | 2.0 | 4.0 | 0.00 | 0.00 | 0.00 | 90 | 1012.9 |
| 20260901043538 | 59 | 229 | 2.0 | 5.0 | 0.00 | 0.00 | 0.00 | 91 | 1012.9 |
| 20260901043056 | 59 | 236 | 2.0 | 5.0 | 0.00 | 0.00 | 0.00 | 91 | 1012.9 |
| 20260901042538 | 59 | 234 | 2.0 | 4.0 | 0.00 | 0.00 | 0.00 | 91 | 1012.8 |
| 20260901042037 | 59 | 212 | 2.0 | 4.0 | 0.00 | 0.00 | 0.00 | 90 | 1012.8 |
| 20260901041551 | 59 | 229 | 2.0 | 5.0 | 0.00 | 0.00 | 0.00 | 90 | 1012.8 |
| 20260901041037 | 59 | 242 | 2.0 | 5.0 | 0.00 | 0.00 | 0.00 | 90 | 1012.8 |
| 20260901040538 | 59 | 208 | 2.0 | 5.0 | 0.00 | 0.00 | 0.00 | 90 | 1012.8 |
| 20260901040052 | 59 | 221 | 2.0 | 5.0 | 0.00 | 0.00 | 0.00 | 90 | 1012.7 |
| 20260901035541 | 60 | 233 | 2.0 | 5.0 | 0.00 | 0.00 | 0.00 | 90 | 1012.6 |
| 20260901035041 | 60 | 228 | 2.0 | 5.0 | 0.00 | 0.00 | 0.00 | 90 | 1012.5 |
| 20260901034558 | 60 | 242 | 2.0 | 4.0 | 0.00 | 0.00 | 0.00 | 89 | 1012.5 |
| 20260901034037 | 60 | 220 | 2.0 | 5.0 | 0.00 | 0.00 | 0.00 | 89 | 1012.5 |
| 20260901033537 | 59 | 221 | 2.0 | 5.0 | 0.00 | 0.00 | 0.00 | 88 | 1012.4 |
| 20260901033054 | 59 | 237 | 2.0 | 5.0 | 0.00 | 0.00 | 0.00 | 88 | 1012.4 |
| 20260901032538 | 59 | 242 | 2.0 | 5.0 | 0.00 | 0.00 | 0.00 | 88 | 1012.4 |
| 20260901032038 | 59 | 223 | 2.0 | 5.0 | 0.00 | 0.00 | 0.00 | 88 | 1012.4 |
| 20260901031556 | 59 | 234 | 2.0 | 5.0 | 0.00 | 0.00 | 0.00 | 88 | 1012.3 |
| 20260901031037 | 59 | 214 | 3.0 | 5.0 | 0.00 | 0.00 | 0.00 | 90 | 1012.3 |
| 20260901030537 | 59 | 228 | 2.0 | 7.0 | 0.00 | 0.00 | 0.00 | 90 | 1012.2 |
| 20260901030054 | 59 | 222 | 3.0 | 7.0 | 0.00 | 0.00 | 0.00 | 90 | 1012.2 |
| 20260901025538 | 59 | 228 | 2.0 | 4.0 | 0.00 | 0.00 | 0.00 | 90 | 1012.3 |
| 20260901025042 | 59 | 235 | 2.0 | 5.0 | 0.00 | 0.00 | 0.00 | 91 | 1012.3 |
| 20260901024606 | 59 | 222 | 2.0 | 5.0 | 0.00 | 0.00 | 0.00 | 91 | 1012.3 |
| 20260901024037 | 59 | 242 | 3.0 | 5.0 | 0.00 | 0.00 | 0.00 | 91 | 1012.2 |
| 20260901023537 | 59 | 208 | 2.0 | 5.0 | 0.00 | 0.00 | 0.00 | 91 | 1012.2 |
| 20260901023054 | 60 | 233 | 2.0 | 5.0 | 0.00 | 0.00 | 0.00 | 91 | 1012.1 |
| 20260901022537 | 60 | 203 | 2.0 | 5.0 | 0.00 | 0.00 | 0.00 | 91 | 1012.2 |
| 20260901022038 | 60 | 221 | 2.0 | 5.0 | 0.00 | 0.00 | 0.00 | 91 | 1012.2 |
| 20260901021552 | 60 | 247 | 2.0 | 5.0 | 0.00 | 0.00 | 0.00 | 91 | 1012.2 |
| 20260901021038 | 60 | 229 | 2.0 | 5.0 | 0.00 | 0.00 | 0.00 | 91 | 1012.2 |
| 20260901020537 | 60 | 205 | 2.0 | 5.0 | 0.00 | 0.00 | 0.00 | 91 | 1012.2 |
| 20260901020050 | 60 | 238 | 3.0 | 5.0 | 0.00 | 0.00 | 0.00 | 91 | 1012.2 |
| 20260901015539 | 60 | 218 | 2.0 | 5.0 | 0.00 | 0.00 | 0.00 | 90 | 1012.2 |
| 20260901015039 | 60 | 238 | 3.0 | 5.0 | 0.00 | 0.00 | 0.00 | 90 | 1012.1 |
| 20260901014559 | 60 | 232 | 3.0 | 5.0 | 0.00 | 0.00 | 0.00 | 90 | 1012.3 |
| 20260901014038 | 60 | 209 | 2.0 | 5.0 | 0.00 | 0.00 | 0.00 | 90 | 1012.3 |
| 20260901013538 | 60 | 233 | 2.0 | 5.0 | 0.00 | 0.00 | 0.00 | 89 | 1012.3 |
| 20260901013050 | 60 | 219 | 2.0 | 5.0 | 0.00 | 0.00 | 0.00 | 89 | 1012.4 |
| 20260901012540 | 60 | 234 | 2.0 | 5.0 | 0.00 | 0.00 | 0.00 | 89 | 1012.4 |
| 20260901012039 | 60 | 229 | 3.0 | 5.0 | 0.00 | 0.00 | 0.00 | 89 | 1012.3 |
| 20260901011608 | 60 | 240 | 2.0 | 5.0 | 0.00 | 0.00 | 0.00 | 89 | 1012.3 |
| 20260901011038 | 61 | 242 | 3.0 | 6.0 | 0.00 | 0.00 | 0.00 | 89 | 1012.3 |
| 20260901010538 | 61 | 232 | 3.0 | 6.0 | 0.00 | 0.00 | 0.00 | 89 | 1012.2 |
| 20260901010058 | 60 | 228 | 3.0 | 6.0 | 0.00 | 0.00 | 0.00 | 88 | 1012.3 |
| 20260901005538 | 61 | 241 | 3.0 | 5.0 | 0.00 | 0.00 | 0.00 | 88 | 1012.2 |
| 20260901005038 | 61 | 238 | 2.0 | 5.0 | 0.00 | 0.00 | 0.00 | 87 | 1012.2 |
| 20260901004602 | 61 | 232 | 2.0 | 5.0 | 0.00 | 0.00 | 0.00 | 87 | 1012.2 |
| 20260901004037 | 61 | 222 | 2.0 | 7.0 | 0.00 | 0.00 | 0.00 | 87 | 1012.3 |
| 20260901003537 | 61 | 231 | 3.0 | 7.0 | 0.00 | 0.00 | 0.00 | 87 | 1012.4 |
| 20260901003049 | 61 | 225 | 4.0 | 8.0 | 0.00 | 0.00 | 0.00 | 87 | 1012.3 |
| 20260901002538 | 61 | 244 | 3.0 | 9.0 | 0.00 | 0.00 | 0.00 | 87 | 1012.4 |
| 20260901002038 | 61 | 217 | 3.0 | 9.0 | 0.00 | 0.00 | 0.00 | 87 | 1012.3 |
| 20260901001602 | 61 | 215 | 4.0 | 9.0 | 0.00 | 0.00 | 0.00 | 87 | 1012.3 |
| 20260901001037 | 61 | 198 | 4.0 | 9.0 | 0.00 | 0.00 | 0.00 | 87 | 1012.4 |
| 20260901000537 | 61 | 214 | 4.0 | 9.0 | 0.00 | 0.00 | 0.00 | 86 | 1012.3 |
| 20260901000103 | 61 | 251 | 4.0 | 8.0 | 0.00 | 0.00 | 0.00 | 86 | 1012.4 |
| 20260831235538 | 61 | 198 | 4.0 | 8.0 | 0.00 | 0.00 | 0.00 | 86 | 1012.4 |
| 20260831235038 | 61 | 266 | 3.0 | 8.0 | 0.00 | 0.00 | 0.00 | 86 | 1012.4 |
| 20260831234558 | 61 | 229 | 4.0 | 8.0 | 0.00 | 0.00 | 0.00 | 85 | 1012.4 |
| 20260831234039 | 61 | 183 | 5.0 | 9.0 | 0.00 | 0.00 | 0.00 | 86 | 1012.5 |
| 20260831233538 | 61 | 187 | 4.0 | 9.0 | 0.00 | 0.00 | 0.00 | 86 | 1012.5 |
| 20260831233054 | 61 | 190 | 4.0 | 9.0 | 0.00 | 0.00 | 0.00 | 86 | 1012.6 |
| 20260831232538 | 61 | 186 | 4.0 | 9.0 | 0.00 | 0.00 | 0.00 | 86 | 1012.7 |
| 20260831232037 | 61 | 227 | 4.0 | 9.0 | 0.00 | 0.00 | 0.00 | 86 | 1012.6 |
| 20260831231552 | 61 | 231 | 3.0 | 7.0 | 0.00 | 0.00 | 0.00 | 86 | 1012.6 |
| 20260831231037 | 61 | 202 | 3.0 | 8.0 | 0.00 | 0.00 | 0.00 | 86 | 1012.6 |
| 20260831230540 | 61 | 221 | 3.0 | 8.0 | 0.00 | 0.00 | 0.00 | 86 | 1012.7 |
| 20260831225538 | 61 | 245 | 2.0 | 6.0 | 0.00 | 0.00 | 0.00 | 84 | 1012.7 |
| 20260831225041 | 61 | 224 | 3.0 | 6.0 | 0.00 | 0.00 | 0.00 | 84 | 1012.8 |
| 20260831224555 | 62 | 236 | 2.0 | 6.0 | 0.00 | 0.00 | 0.00 | 84 | 1012.8 |
| 20260831224041 | 62 | 236 | 3.0 | 6.0 | 0.00 | 0.00 | 0.00 | 83 | 1012.9 |
| 20260831223540 | 62 | 219 | 3.0 | 7.0 | 0.00 | 0.00 | 0.00 | 83 | 1012.8 |
| 20260831223106 | 62 | 241 | 3.0 | 7.0 | 0.00 | 0.00 | 0.00 | 83 | 1012.8 |
| 20260831222539 | 62 | 198 | 4.0 | 7.0 | 0.00 | 0.00 | 0.00 | 83 | 1012.9 |
| 20260831222039 | 62 | 248 | 3.0 | 7.0 | 0.00 | 0.00 | 0.00 | 84 | 1012.9 |
| 20260831221554 | 62 | 232 | 3.0 | 7.0 | 0.00 | 0.00 | 0.00 | 83 | 1012.9 |
| 20260831221037 | 62 | 223 | 3.0 | 7.0 | 0.00 | 0.00 | 0.00 | 84 | 1012.9 |
| 20260831220537 | 62 | 207 | 3.0 | 7.0 | 0.00 | 0.00 | 0.00 | 83 | 1013.0 |
| 20260831220104 | 62 | 194 | 3.0 | 7.0 | 0.00 | 0.00 | 0.00 | 83 | 1013.0 |
| 20260831215537 | 62 | 228 | 4.0 | 8.0 | 0.00 | 0.00 | 0.00 | 82 | 1013.0 |
| 20260831215038 | 63 | 220 | 3.0 | 8.0 | 0.00 | 0.00 | 0.00 | 83 | 1013.0 |
| 20260831214622 | 62 | 219 | 4.0 | 8.0 | 0.00 | 0.00 | 0.00 | 84 | 1013.1 |
| 20260831214039 | 62 | 225 | 4.0 | 8.0 | 0.00 | 0.00 | 0.00 | 84 | 1013.2 |